Epoch 2003 Oct. 8.0 TT = JDT 2452920.5 T 2003 Oct. 3.15132 TT MPC q 3.6337804 (2000.0) P Q z -0.0000055 Peri. 230.70575 +0.29570978 +0.66520098 +/-0.0000008 Node 70.88122 -0.48563243 +0.72272891 e 1.0000199 Incl. 46.52183 -0.82262802 -0.18753818 From 195 observations 2002 May 4-2006 Oct. 1, mean residual 0".6.
m1 = 10.0 + 5 logΔ + 6.5 log r